Location: *
(32.8667°N, 13.1833°E)
Time: 19:52:46
(UTC+00:00)

Cosmos 2058 - Pass Details

Date: 18 July 2019
Orbit: 561 x 585 km, 82.5° (Epoch: 25 August)

Event Time Altitude Azimuth Distance (km) Brightness Sun altitude
Rises 18:49:21 0° 168° (SSE) 2,781 6.0 -7.1°
Reaches altitude 10° 18:51:37 10° 160° (SSE) 1,889 5.1 -7.5°
Maximum altitude 18:55:30 39° 92° (E) 887 3.5 -8.2°
Drops below altitude 10° 18:59:25 10° 24° (NNE) 1,909 5.7 -8.9°
Sets 19:01:43 0° 16° (NNE) 2,814 6.7 -9.3°
